Flag for United Kingdom Weather past 2 weeks in Carlisle, England, United Kingdom

Now
45 °F

Cool.


Feels Like: N/A
Forecast: 40 / 56 °F
Wind: N/A

Location: Carlisle

Current Time: May 29, 2015 at 3:32:40 AM

Latest Report: May 29, 2015 at 2:00 AM


Visibility: 34 mi

Pressure: 29.74 "Hg

Humidity: 86%

Dew point: 41 °F

Location of CarlisleLocation

Historic Weather in Carlisle — Graph

°F

Carlisle temperature yesterday

Maximum temperature yesterday: 52 °F (at 1:00 PM)
Minimum temperature yesterday: 45 °F (at 7:00 AM)
Average temperature yesterday: 49 °F

Past Weeks' High & Low Weather Summary

 TemperatureHumidityPressure
High61 °F (May 25, 6:00 PM)96% (May 23, 6:00 AM)30.31 "Hg (May 23, 6:00 AM)
Low40 °F (May 15, 6:00 AM)38% (May 23, 4:00 PM)29.38 "Hg (May 18, 11:00 PM)
Average51 °F75%30.01 "Hg
* Reported May 14 2:00 AM — May 29 2:00 AM, Carlisle, Weather by CustomWeather, © 2015

Note: Actual official high and low records may vary slightly from our data, if they occured in-between our weather recording intervals... More about our weather records

Advertising

Carlisle weather history for previous 24 hours

 ConditionsComfort  
Time TempWeatherWind HumidityBarometerVisibility
2:00 AM
Fri, May 29
45 °FCool.N/A86%29.74 "Hg34 mi
1:00 AM45 °FCool.N/A87%29.76 "Hg28 mi
12:00 AM45 °FQuite cool.N/A86%29.77 "Hg31 mi
9:00 PM
Thu, May 28
47 °FCool.N/A80%29.80 "Hg14 mi
8:00 PM48 °FCool.N/A76%29.81 "Hg37 mi
7:00 PM49 °FCool.N/A72%29.81 "Hg28 mi
6:00 PM50 °FCool.N/A74%29.82 "Hg37 mi
5:00 PM51 °FCool.N/A74%29.82 "Hg28 mi
4:00 PM50 °FCool.N/A86%29.83 "Hg31 mi
3:00 PM51 °FCool.N/A68%29.82 "Hg40 mi
2:00 PM51 °FCool.N/A69%29.82 "Hg28 mi
1:00 PM52 °FCool.N/A66%29.81 "Hg31 mi
12:00 PM51 °FCool.N/A71%29.81 "Hg22 mi
11:00 AM49 °FCool.N/A78%29.82 "Hg25 mi
10:00 AM50 °FCool.N/A71%29.82 "Hg31 mi
9:00 AM46 °FCool.N/A84%29.83 "Hg5 mi
8:00 AM47 °FCool.N/A78%29.82 "Hg28 mi
7:00 AM45 °FCool.N/A82%29.81 "Hg34 mi
6:00 AM46 °FCool.N/A83%29.80 "Hg31 mi
3:00 AM47 °FCool.N/A85%29.77 "Hg28 mi
Weather by CustomWeather, © 2015

See weather overviewHow to use our weather pages